Regional Weather Roundup
Issued by NWS Charleston, SC

Current Version | Previous Version | Graphics & Text | Print | Product List | Glossary On
Versions: 1 2 3 4 5 6 7 8 9 10 11 12 13 14 15 16 17 18 19 20 21 22 23 24 25 26 27 28 29 30 31 32 33 34 35 36 37 38 39 40 41 42 43 44 45 46 47 48 49 50
000 ASUS42 KCHS 190412 RWRCHS REGIONAL WEATHER ROUNDUP NATIONAL WEATHER SERVICE CHARLESTON SC 1100 PM EST WED JAN 18 2017 NOTE: "FAIR" INDICATES FEW OR NO CLOUDS BELOW 12,000 FEET WITH NO SIGNIFICANT WEATHER AND/OR OBSTRUCTIONS TO VISIBILITY. NOT ALL STATIONS ARE QUALITY CONTROLLED. USE DATA WITH CAUTION... ESPECIALLY DEWPOINT OBSERVATIONS. SCZ027-030-031-034>040-042>050-190500- ...SOUTHEAST SOUTH CAROLINA... CITY SKY/WX TMP DP RH WIND PRES REMARKS N CHARLESTON CLEAR 64 58 80 W6 30.03F WATERFRONT PRK N/A 67 61 80 VRB2 30.02S MOUNT PLEASANT FAIR 64 61 88 CALM 30.03F JOHNS ISLAND FAIR 66 61 82 W6 30.04F PINOPOLIS N/A 61 59 94 CALM 29.95R MONCKS CORNER FAIR 59 57 94 CALM 30.03S SUMMERVILLE FAIR 59 59 100 CALM 30.05S BEAUFORT MCAS CLEAR 60 57 89 SW3 30.05S BEAUFORT ARPT FAIR 61 59 94 CALM 30.05S HILTON HEAD IS CLEAR 64 59 82 CALM 30.06S WALTERBORO CLEAR 63 59 88 W6 30.05S ALLENDALE FAIR 61 57 88 CALM 30.04S ...SOUTHERN MIDLANDS AND PEE DEE... CITY SKY/WX TMP DP RH WIND PRES REMARKS GEORGETOWN FAIR 52 52 100 CALM 30.05S KINGSTREE FAIR 50 46 87 CALM 30.04S ORANGEBURG CLEAR 61 57 87 CALM 30.04S BARNWELL FAIR 61 59 94 CALM 30.05F AIKEN FAIR 52 46 82 CALM 30.10R MANNING FAIR 52 37 58 CALM 30.05R COLUMBIA CLEAR 56 45 66 CALM 30.04R SUMTER CLEAR 51 45 78 CALM 30.02S FLORENCE CLEAR 51 43 74 CALM 30.05R MYRTLE BEACH CLEAR 54 45 71 NE6 30.06R N MYRTLE BEACH CLEAR 48 46 93 NE5 30.03S $$ GAZ063-065-086>088-099>101-113>116-118-119-134>141-150-190500- ...SOUTHEAST GEORGIA... CITY SKY/WX TMP DP RH WIND PRES REMARKS SAVANNAH ARPT CLEAR 63 56 78 W7 30.06S HUNTER AAF CLEAR 62 60 93 W8 30.03S FORT STEWART CLEAR 64 58 81 W6 30.05S STATESBORO CLEAR 64 60 87 W6 30.07R SYLVANIA CLEAR N/A N/A N/A CALM 30.07S CLAXTON FAIR N/A N/A N/A CALM 30.08S ...CSRA...CENTRAL AND FAR SOUTHEAST GEORGIA... CITY SKY/WX TMP DP RH WIND PRES REMARKS THOMSON CLEAR 57 54 89 CALM 30.11S AUGUSTA-BUSH CLEAR 58 54 86 CALM N/A AUGUSTA-DANIEL CLEAR 66 49 54 NW7 30.07R SWAINSBORO FAIR 63 59 88 MISG 30.08S VIDALIA CLEAR 63 61 94 W5 30.09S EASTMAN N/A 57 57 100 CALM 30.12S FOG HAZLEHURST FAIR 60 60 100 CALM 30.08S ALMA PTCLDY 57 57 100 CALM 30.09S WAYCROSS PTCLDY 61 61 100 CALM 30.09S JESUP FAIR 64 57 77 CALM 30.08F BAXLEY FAIR 61 61 100 CALM 30.09S BRUNSWICK CLEAR 64 61 88 W6 30.08F SAINT SIMONS CLEAR 64 58 80 W5 30.08F $$ SCZ027-028-034-036>038-045-046-048>050-GAZ119-141-190500- ...LAKE AND SUPPLEMENTAL COASTAL OBSERVATIONS... STATION/POSITION TIME TEMP WIND PRES WAVE SWELL AIR SEA DIR/SP/G HT/PER HT/PER/DIR (UTC) (F) (DEG/KT/KT) (MB) (FT/S) (FT/S/D) WINYAH BAY 0245 58 CALM 1017.0 LAKE MURRAY 0320 58 CALM / 2 1016.9R ACE BASIN NERRS 0245 63 CALM 1017.0 FORT PULASKI 0348 66 57 260/ 5/ 8 1017.9S SAPELO ISLAND 0300 62 240/ 2 1018.0 $$ ANZ835-935-AMZ111-154-330-350-352-354-370-450-454-472-190500- ...C-MAN AND BUOY OBSERVATIONS... STATION/POSITION TIME TEMP WIND PRES WAVE SWELL AIR SEA DIR/SP/G HT/PER HT/PER/DIR (UTC) (F) (DEG/KT/KT) (MB) (FT/S) (FT/S/D) BUOY 41004 0250 70 71 270/ 16/ 17 1016.2 4/ 6 2/190/ 7 BUOY 41008 0250 63 60 230/ 10/ 10 1018.0 1/ 8 2/ 90/ 8 FOLLY BEACH CMAN 0300 63 250/ 4/ 4 1017.7R CAPERS NEARSHORE 0308 57 55 240/ 6/ 8 1016.9R FRIPP NEARSHORE 0308 60 57 250/ 4/ 6 1017.4R STATION/POSITION TIME TEMP WIND PRES WAVE SWELL AIR SEA DIR/SP/G HT/PER HT/PER/DIR (UTC) (F) (DEG/KT/KT) (MB) (FT/S) (FT/S/D) 5E ST. MARYS GA 0330 63 N/A 1/ 9 FRYING PAN BUOY 0350 65 71 50/ 16/ 21 1016.9R 4/ 6 2/150/10 BUOY 41025 0350 54 75 20/ 17/ 23 1016.5R 5/ 7 2/350/14 CAPE LOOKOUT NC 0300 51 10/ 9/ 12 1017.2R BUOY 41002 0250 72 72 350/ 21/ 25 1014.1 9/ 8 BUOY 41010 NOT AVBL ST AUGUSTINE FL 0400 66 63 250/ 6/ 7 1019.6F $$

USA.gov is the U.S. government's official web portal to all federal, state and local government web resources and services.